Location: *
(46.1833°S, 157.5000°W)
Time: 13:43:19
(UTC+00:00)

Daily predictions for brighter satellites

Satellite Brightness Start Highest point End
(mag) Time Altitude Azimuth Time Altitude Azimuth Time Altitude Azimuth
SJ 16-02 4.1 14:20:29 15° SE 14:20:29 15° SE 14:22:56 10° E
Cosmos 1603 4.1 14:49:11 56° NE 14:49:44 59° ENE 14:55:19 10° SSE
SL-8 Rocket 3.9 14:56:34 66° N 14:57:31 88° E 15:03:49 10° S
USA 281 4.2 14:51:57 10° SE 14:58:18 45° ENE 15:04:34 10° N
Cosmos 1809 Rocket 4.3 14:59:46 59° S 15:01:05 90° ENE 15:07:13 10° N
Cosmos 2341 Rocket 3.8 15:02:42 44° NNW 15:04:53 86° W 15:11:13 10° S
USA 215 4.2 15:02:27 10° ESE 15:08:22 36° S 15:10:08 31° SSW
Meteor 2-14 Rocket 4.3 15:06:45 48° SSW 15:08:36 83° W 15:14:42 10° N
Cosmos 2218 Rocket 3.9 15:03:27 10° N 15:09:47 90° E 15:16:08 10° S
ATLAS 2AS CENTAUR R/B 3.4 15:04:34 10° NNW 15:11:30 55° ENE 15:18:37 10° SE
Meteor 2-21 4.4 15:08:43 10° S 15:14:53 84° E 15:20:59 10° N
Gbstr 26 Del rocket 3.8 15:14:51 57° SSW 15:15:29 60° SSE 15:21:46 10° E
BREEZE M DEB (TANK) 3.9 15:19:47 34° N 15:19:47 34° N 15:21:53 10° NNE
ATLAS 3B R/B 3.7 15:17:03 21° SSW 15:20:35 38° SE 15:26:40 10° ENE
Cosmos 304 Rocket 3.6 15:22:33 80° S 15:22:49 87° ESE 15:27:36 10° NNE
SL-16 R/B 4.1 15:25:19 15° SSW 15:25:19 15° SSW 15:26:58 10° S
Cosmos 921 Rocket 3.7 15:25:15 44° N 15:25:15 44° N 15:28:22 10° N
Cosmos 1908 Rocket 4.3 15:19:44 10° N 15:24:04 53° E 15:28:27 10° SSE
Cosmos 1025 Rocket 3.1 15:25:10 70° NNE 15:25:10 70° NNE 15:28:59 10° N
COSMOS 2455 3.9 15:28:09 28° NNW 15:28:09 28° NNW 15:31:28 10° N
Cosmos 1959 Rocket 4.4 15:20:14 10° NNW 15:26:31 74° W 15:32:58 10° S
Cosmos 1697 Rocket 4.3 15:26:08 10° S 15:31:11 31° SE 15:36:11 10° ENE
Cosmos 2221 Rocket 3.9 15:29:42 19° S 15:32:53 67° E 15:37:18 10° NNE
Cosmos 2366 rocket 4.0 15:27:48 10° NNW 15:34:01 57° WSW 15:40:17 10° S
Cosmos 1484 Rocket 3.0 15:38:11 10° NNE 15:41:36 56° ESE 15:42:55 32° S
Cosmos 405 Rocket 4.4 15:45:25 17° N 15:45:25 17° N 15:46:11 10° N
Cosmos 371 Rocket 3.2 15:45:41 46° SW 15:46:53 64° WNW 15:51:38 10° N
SPOT 1/Viking Rocket 4.4 15:45:13 10° NE 15:50:14 50° ESE 15:55:19 10° S
Meteor 2-8 Rocket 4.4 15:45:17 10° N 15:51:29 89° WSW 15:57:44 10° S
SL-4 R/B 3.8 15:53:12 14° N 15:53:12 14° N 15:53:59 10° N
SL-16 R/B 2.5 15:45:53 10° SSE 15:52:14 86° WSW 15:58:33 10° NNW
ISS -3.8 15:52:14 82° SW 15:52:18 83° SSW 15:55:48 10° ESE
SeaSat 1 4.2 15:49:05 10° S 15:50:55 16° SSW 15:50:55 16° SSW
Cosmos 1656 3.5 15:51:00 24° SSW 15:54:27 75° WNW 15:59:56 10° NNE
Cosmos 1900 4.3 15:55:36 31° WNW 15:57:55 61° SW 16:03:01 10° SSE
Cosmos 1821 Rocket 4.0 15:52:47 10° NNW 15:58:46 54° WSW 16:04:52 10° S
SJ 16-02 1.2 15:57:01 31° SSW 15:58:59 70° WNW 16:03:18 10° N
Cosmos 1000 Rocket 4.5 15:54:52 10° S 16:01:18 85° W 16:07:34 10° N
Cosmos 1943 4.4 16:01:49 23° SW 16:01:49 23° SW 16:06:04 10° S
Cosmos 2058 4.5 15:58:10 10° S 16:01:53 34° ESE 16:05:33 10° NE
Cosmos 1980 Rocket 4.0 15:59:29 10° S 16:04:12 26° SE 16:08:53 10° ENE
Cosmos 1727 Rocket 4.0 15:58:23 10° SSW 16:04:42 65° W 16:10:59 10° N
MOS 1 Rocket 3.9 16:01:37 10° NNW 16:05:41 32° W 16:05:41 32° W
Meteor 2-21 Rocket 4.4 16:00:46 10° SSW 16:06:45 57° W 16:12:41 10° N
CBERS-1 3.9 16:03:05 10° N 16:08:13 73° WNW 16:13:26 10° SSW
USA 32 4.2 16:05:19 10° NNW 16:10:24 50° W 16:15:34 10° S
Cosmos 1833 Rocket 3.2 16:05:17 10° NNW 16:10:52 64° ENE 16:16:31 10° SSE
Cosmos 1867 3.5 16:08:16 14° NW 16:12:52 62° SW 16:18:15 10° SSE
Cosmos 2123 Rocket 4.0 16:07:49 10° S 16:14:08 86° E 16:20:21 10° N
Cosmos 1190 Rocket 3.9 16:10:43 10° SSW 16:16:02 80° WNW 16:21:20 10° NNE
SMAP 3.1 16:11:43 10° N 16:16:20 57° W 16:21:01 10° SSW
ARIANE 5 R/B 2.8 16:13:10 10° NNE 16:18:08 69° ESE 16:23:12 10° S
Cosmos 2360 4.4 16:16:24 16° SW 16:20:55 53° WNW 16:26:27 10° N
Resurs 1-3 4.1 16:24:12 10° NNE 16:28:28 60° ESE 16:32:48 10° S
Cosmos 407 Rocket 4.4 16:25:56 20° WSW 16:28:31 29° W 16:33:01 10° NNW
Cosmos 1934 Rocket 4.0 16:22:36 10° N 16:28:59 85° W 16:35:30 10° S
Cosmos 1954 Rocket 4.0 16:26:36 10° SSW 16:31:57 70° WNW 16:37:14 10° N
YAOGAN 1 3.2 16:29:42 10° NNE 16:33:54 57° ESE 16:38:10 10° S
USA 307 1.6 16:34:33 38° SW 16:34:38 38° SSW 16:36:16 10° SE
Cosmos 1420 Rocket 4.2 16:31:05 10° NW 16:36:03 46° WSW 16:41:06 10° SSE
Cosmos 1371 Rocket 3.9 16:32:40 10° NNW 16:37:52 82° WSW 16:43:08 10° SSE
Meteor 1-28 Rocket 3.3 16:35:21 10° S 16:38:29 38° WSW 16:41:34 10° NW
USA 281 3.6 16:36:34 10° SSE 16:42:44 42° SW 16:48:51 10° WNW
Cosmos 1975 Rocket 3.1 16:38:51 10° SSW 16:43:21 68° W 16:47:47 10° N
CZ-4C R/B 3.2 16:34:49 10° NNW 16:43:50 85° NE 16:51:16 10° SE
Cosmos 1315 Rocket 3.6 16:40:52 10° NW 16:44:12 27° WSW 16:47:33 10° SSW
USA 229 DEB 3.6 16:42:44 11° SW 16:48:54 55° WNW 16:54:33 10° NNE
USA 229 3.6 16:42:46 10° SW 16:48:57 56° WNW 16:54:36 10° NNE
Cosmos 44 Rocket 3.1 16:45:23 10° NW 16:50:06 87° SW 16:54:47 10° SE
Cosmos 1869 4.5 16:47:45 10° WNW 16:50:10 17° WSW 16:52:36 10° SSW
USA 215 3.7 16:44:11 10° ENE 16:50:40 59° SSE 16:57:09 10° SW
Cosmos 676 Rocket 4.1 16:50:10 10° SSW 16:55:27 61° WNW 17:00:41 10° N
Resurs 01 Rocket 2.5 16:51:26 10° NNE 16:55:46 53° ESE 17:00:09 10° S
Cosmos 2251 Rocket 4.2 16:51:31 10° SW 16:56:17 35° WNW 17:01:00 10° NNW
Cosmos 1300 Rocket 4.4 16:53:27 10° NW 16:57:11 27° WSW 17:00:57 10° SSW
UNK 4.1 16:55:06 10° S 16:59:30 41° WSW 17:03:50 10° NW
BREEZE M DEB (TANK) 1.9 16:58:34 10° NW 17:01:34 56° NNE 17:03:44 10° ESE
Gbstr 26 Del rocket 4.2 16:56:51 11° WSW 17:02:09 57° NW 17:08:52 10° NE
ATLAS 2AS CENTAUR R/B 3.2 16:55:48 10° WNW 17:02:40 44° SW 17:09:42 10° SSE
Cosmos 2084 Rocket 3.6 17:04:48 10° SW 17:08:59 72° SE 17:13:03 10° NE
Cosmos 1862 4.0 17:06:49 10° SSW 17:10:05 29° W 17:13:17 10° NNW
Cosmos 2082 Rocket 3.9 17:05:55 10° N 17:11:05 39° ENE 17:16:20 10° SE
ATLAS 3B R/B 2.8 17:05:16 10° SW 17:11:28 57° WNW 17:18:03 10° NNE
Timation 1 Rocket 4.4 17:05:52 10° NNW 17:11:51 85° WSW 17:17:55 10° SSE
Cosmos 332 Rocket 4.4 17:08:37 10° SW 17:13:09 38° WNW 17:17:39 10° N
Cosmos 1697 Rocket 3.0 17:09:52 10° SW 17:15:23 50° WNW 17:20:50 10° N
COSMO-SKYMED 1 2.6 17:11:27 10° SSE 17:15:40 84° ENE 17:19:48 10° NNW
Cosmos 1110 Rocket 4.0 17:13:42 10° NNW 17:18:52 83° WSW 17:24:08 10° SSE
Cosmos 1850 Rocket 4.1 17:15:34 10° SSW 17:20:59 89° ESE 17:26:19 10° NNE
